Flag for Monaco Weather past 2 weeks in Monaco, Monaco

Now
75 °F

Partly cloudy.


Feels Like: 78 °F
Forecast: 67 / 77 °F
Wind: 8 mph from North

Location: Nice Airport

Current Time: Jul 31, 2015 at 5:30:04 AM

Latest Report: Jul 31, 2015 at 5:00 AM


Visibility: N/A

Pressure: 29.77 "Hg

Humidity: 47%

Dew point: 54 °F

Location of MonacoLocation

Historic Weather in Monaco — Graph

°F

Monaco temperature yesterday

Maximum temperature yesterday: 82 °F (at 12:00 AM)
Minimum temperature yesterday: 75 °F (at 5:30 AM)
Average temperature yesterday: 79 °F

Past Weeks' High & Low Weather Summary

 TemperatureHumidityPressure
High97 °F (Jul 25, 1:30 PM)84% (Jul 19, 10:30 PM)30.09 "Hg (Jul 19, 10:30 PM)
Low72 °F (Jul 27, 4:00 AM)16% (Jul 25, 2:30 PM)29.59 "Hg (Jul 27, 4:30 PM)
Average81 °F61%29.86 "Hg
* Reported Jul 16 4:00 AM — Jul 31 4:00 AM, Monaco, Weather by CustomWeather, © 2015

Note: Actual official high and low records may vary slightly from our data, if they occured in-between our weather recording intervals... More about our weather records

Advertising

Monaco weather history for previous 24 hours

 ConditionsComfort  
Time TempWeatherWind HumidityBarometerVisibility
4:00 AM
Fri, Jul 31
75 °FPassing clouds.6 mph61%29.80 "HgN/A
3:30 AM75 °FPassing clouds.5 mph74%29.80 "HgN/A
3:00 AM77 °FPassing clouds.9 mph83%29.77 "HgN/A
2:30 AM77 °FPassing clouds.9 mph79%29.80 "HgN/A
2:00 AM77 °FPassing clouds.8 mph79%29.80 "HgN/A
1:30 AM77 °FPassing clouds.7 mph79%29.80 "HgN/A
1:00 AM77 °FClear.8 mph79%29.80 "Hg10 mi
12:30 AM77 °FClear.13 mph79%29.77 "Hg10 mi
12:00 AM77 °FClear.15 mph79%29.77 "Hg10 mi
11:30 PM
Thu, Jul 30
79 °FClear.15 mph74%29.77 "Hg10 mi
11:00 PM77 °FClear.5 mph79%29.77 "Hg10 mi
10:30 PM77 °FClear.No wind79%29.77 "Hg10 mi
10:00 PM77 °FClear.2 mph79%29.77 "Hg10 mi
9:30 PM77 °FPassing clouds.3 mph79%29.77 "HgN/A
9:00 PM79 °FSunny.3 mph74%29.74 "Hg10 mi
8:30 PM79 °FSunny.3 mph74%29.74 "Hg10 mi
8:00 PM79 °FSunny.7 mph74%29.77 "Hg10 mi
7:30 PM81 °FScattered clouds.6 mph70%29.77 "HgN/A
7:00 PM81 °FScattered clouds.8 mph66%29.74 "HgN/A
6:30 PM82 °FScattered clouds.9 mph62%29.77 "HgN/A
6:00 PM81 °FPassing clouds.9 mph66%29.77 "HgN/A
5:30 PM81 °FPassing clouds.7 mph66%29.77 "HgN/A
5:00 PM81 °FPassing clouds.7 mph66%29.77 "HgN/A
4:30 PM81 °FPassing clouds.7 mph70%29.77 "HgN/A
4:00 PM81 °FPassing clouds.9 mph70%29.80 "HgN/A
3:30 PM81 °FPassing clouds.8 mph70%29.80 "HgN/A
3:00 PM82 °FPassing clouds.8 mph66%29.77 "HgN/A
2:30 PM82 °FPassing clouds.8 mph66%29.80 "HgN/A
2:00 PM81 °FScattered clouds.8 mph66%29.80 "HgN/A
1:30 PM81 °FScattered clouds.9 mph66%29.80 "HgN/A
1:00 PM81 °FScattered clouds.8 mph66%29.80 "HgN/A
12:30 PM81 °FScattered clouds.7 mph66%29.80 "HgN/A
12:00 PM81 °FScattered clouds.7 mph66%29.80 "HgN/A
11:30 AM81 °FScattered clouds.6 mph66%29.80 "HgN/A
11:00 AM81 °FScattered clouds.6 mph66%29.80 "HgN/A
10:30 AM79 °FScattered clouds.10 mph70%29.80 "HgN/A
10:00 AM79 °FScattered clouds.13 mph74%29.77 "HgN/A
9:30 AM81 °FBroken clouds.12 mph70%29.77 "HgN/A
9:00 AM79 °FBroken clouds.2 mph61%29.77 "HgN/A
8:30 AM81 °FScattered clouds.No wind58%29.77 "HgN/A
8:00 AM77 °FScattered clouds.3 mph54%29.77 "HgN/A
7:30 AM75 °FScattered clouds.3 mph57%29.77 "HgN/A
7:00 AM75 °FPassing clouds.7 mph57%29.77 "HgN/A
6:30 AM75 °FPassing clouds.5 mph61%29.74 "HgN/A
6:00 AM75 °FPassing clouds.5 mph65%29.74 "HgN/A
5:30 AM75 °FClear.5 mph69%29.74 "Hg10 mi
5:00 AM77 °FClear.7 mph79%29.74 "Hg10 mi
Weather by CustomWeather, © 2015

See weather overviewHow to use our weather pages